Peoria, IL

5:46 PM CST on February 27, 2017 (GMT -0600)
Greater Peoria Regional

Weather History for KPIA - August, 2013

Change the Weather History Date:

Monday, August 12, 2013

  Actual Average Record
Temperature  
Mean Temperature 75 °F 74 °F  
Max Temperature 83 °F 84 °F 99 °F (1918)
Min Temperature 66 °F 64 °F 47 °F (1979)
Degree Days  
Heating Degree Days 0 0  
Month to date heating degree days 0 0  
Since 1 June heating degree days 22 19  
Since 1 July heating degree days 4 1  
Cooling Degree Days 10 9  
Month to date cooling degree days 104 117  
Year to date cooling degree days 734 748  
Since 1 June cooling degree days 627 667  
Growing Degree Days 24 (Base 50)    
Moisture  
Dew Point 65 °F    
Average Humidity 74    
Maximum Humidity 90    
Minimum Humidity 58    
Precipitation  
Precipitation 0.10 in 0.10 in 1.98 in (2016)
Month to date precipitation 0.33 1.25  
Year to date precipitation 31.83 22.96  
Snow  
Snow 0.00 in 0.00 in 0.00 in ()
Month to date snowfall 0.0 0.0  
Since 1 June snowfall 0.0 0.0  
Since 1 July snowfall 0.0 0.0  
Snow Depth 0.00 in    
Sea Level Pressure  
Sea Level Pressure 29.98 in    
Wind  
Wind Speed 5 mph (WSW)    
Max Wind Speed 12 mph    
Max Gust Speed 16 mph    
Visibility 10 miles    
Events Rain    
T = Trace of Precipitation, MM = Missing Value Source: NWS Daily Summary

Daily Weather History Graph

Daily Weather History Graph

Search for Another Location

Airport or City:

Trip Planner

Search our weather history database for the weather conditions in past years. The results will help you decide how hot, cold, wet, or windy it might be!

Date:

Astronomy

Aug. 12, 2013 Rise Set
Actual Time 6:06 AM CDT 8:00 PM CDT
Civil Twilight 5:36 AM CDT 8:29 PM CDT
Nautical Twilight 5:00 AM CDT 9:05 PM CDT
Astronomical Twilight 4:21 AM CDT 9:44 PM CDT
Moon 11:59 AM CDT (8/12) 10:50 PM CDT (8/12)
Length of Visible Light 14h 52m
Length of Day
13h 53m
Waxing Crescent, 31% of the Moon is Illuminated
Aug 12
Waxing Crescent
Aug 14
First Quarter
Aug 20
Full
Aug 28
Last Quarter
Sep 5
New

Hourly Weather History & Observations

Time (CDT) Temp. Heat Index Dew Point Humidity Pressure Visibility Wind Dir Wind Speed Gust Speed Precip Events Conditions
12:54 AM 70.0 °F - 64.0 °F 81% 30.05 in 10.0 mi South 8.1 mph - N/A   Clear
1:54 AM 69.1 °F - 63.0 °F 81% 30.04 in 10.0 mi South 4.6 mph - N/A   Clear
2:54 AM 69.1 °F - 62.1 °F 78% 30.03 in 10.0 mi SSW 4.6 mph - N/A   Clear
3:54 AM 68.0 °F - 62.1 °F 81% 30.03 in 10.0 mi SSW 5.8 mph - N/A   Clear
4:54 AM 66.9 °F - 61.0 °F 81% 30.02 in 10.0 mi SSW 4.6 mph - N/A   Clear
5:54 AM 66.9 °F - 61.0 °F 81% 30.01 in 10.0 mi South 4.6 mph - N/A   Clear
6:54 AM 66.9 °F - 62.1 °F 84% 30.00 in 10.0 mi South 4.6 mph - N/A   Clear
7:54 AM 71.1 °F - 63.0 °F 75% 29.99 in 10.0 mi SSW 6.9 mph - N/A   Clear
8:54 AM 75.0 °F - 63.0 °F 66% 29.99 in 10.0 mi SW 8.1 mph - N/A   Clear
9:54 AM 78.1 °F - 63.0 °F 60% 29.99 in 10.0 mi SSW 10.4 mph - N/A   Clear
10:54 AM 79.0 °F - 64.0 °F 60% 29.99 in 10.0 mi SW 8.1 mph - N/A   Clear
11:54 AM 82.0 °F 84.1 °F 66.0 °F 58% 29.99 in 10.0 mi WSW 6.9 mph - N/A   Clear
12:54 PM 82.0 °F 84.5 °F 66.9 °F 60% 29.97 in 10.0 mi WSW 8.1 mph - N/A   Clear
1:54 PM 82.0 °F 84.5 °F 66.9 °F 60% 29.95 in 10.0 mi WNW 5.8 mph - N/A   Clear
2:54 PM 81.0 °F 83.3 °F 66.9 °F 62% 29.94 in 10.0 mi West 6.9 mph - N/A   Clear
3:54 PM 81.0 °F 83.8 °F 68.0 °F 65% 29.93 in 10.0 mi WNW 8.1 mph - N/A   Partly Cloudy
4:54 PM 75.9 °F - 71.1 °F 85% 29.92 in 6.0 mi NNW 4.6 mph - 0.03 in Rain Light Rain
5:54 PM 78.1 °F - 69.1 °F 74% 29.91 in 10.0 mi NW 5.8 mph - 0.00 in   Partly Cloudy
6:35 PM 75.0 °F - 66.9 °F 76% 29.92 in 2.0 mi Calm Calm - 0.07 in Rain Light Rain
6:44 PM 75.0 °F - 68.0 °F 79% 29.92 in 10.0 mi Calm Calm - 0.07 in   Scattered Clouds
6:54 PM 73.9 °F - 66.9 °F 79% 29.91 in 10.0 mi Calm Calm - 0.07 in   Partly Cloudy
7:54 PM 73.0 °F - 68.0 °F 84% 29.91 in 10.0 mi Calm Calm - N/A   Clear
8:54 PM 71.1 °F - 68.0 °F 90% 29.94 in 8.0 mi Calm Calm - N/A   Clear
9:54 PM 71.1 °F - 66.9 °F 87% 29.95 in 10.0 mi WNW 4.6 mph - N/A   Clear
10:54 PM 70.0 °F - 64.0 °F 81% 29.95 in 10.0 mi NW 4.6 mph - N/A   Clear